Terminal Aerodrome Forecast
Issued by NWS Rapid City, SD

Home | Current Version | Previous Version | Graphics & Text | Print | Product List | Glossary On
Versions: 1 2 3 4 5 6 7 8 9 10 11 12 13 14 15 16
617
FTUS43 KUNR 230520
TAFRAP
TAF
KRAP 230520Z 2306/2406 24004KT P6SM OVC150
     FM231000 34012KT P6SM OVC150
     FM232000 35020G30KT P6SM BKN040
     FM240100 35015G25KT P6SM OVC025
     FM240200 35015KT P6SM OVC015=

USA.gov is the U.S. government's official web portal to all federal, state and local government web resources and services.